Weather in Novomikhaylovskoye

Russia / Krasnodar Krai     46°32′54″N   39°51′11″E
temp.,
°C
wind,
m/s
gust,
m/s
humid.,
%
clouds,
%
prec.,
mm/h
press.,
hPa
HPBL,
m
26 february, fri
fri2600:00−1wsw71384100 0.0 1029405
03:00+1wsw61491100 0.0 1027453
06:00+2wsw6139597 0.0 1026362
09:00+3wsw7149799 0.0 1026390
12:00+3wsw61298100 0.6 1025360
15:00+4wsw61397100 0.8 1024392
18:00+4wsw61297100 0.0 1023351
21:00+4wsw51497100 0.0 1023382
27 february, sat
sat2700:00+5wsw71695100 0.0 1021478
03:00+5wsw71594100 0.0 1020552
06:00+5wsw71594100 0.0 1018527
09:00+6wsw71593100 0.0 1017562
12:00+7wsw71590100 0.0 1016719
15:00+7wsw81588100 0.1 1014737
18:00+6wsw71492100 0.8 1014652
21:00+5w51097100 3.5 1014405
28 february, sun
sun2800:00+4wnw3796100 4.1 1015421
03:00+3wnw3795100 5.4 1015265
06:00+2nw2595100 0.1 1016221
09:00+2n3587100 0.1 1017472
12:00+4nw3469100 0.0 1017852
15:00+5nw3467100 0.1 1017953
18:00+4wnw357997 0.1 1018287
21:00+1nnw259498 0.2 1020191
1 march, mon
mon100:00+1wnw229495 0.0 1021107
03:000wnw229590 0.0 102276
06:000nnw229891 0.1 1023127
09:00+1n239496 0.2 1025218
12:00+3nnw236886 0.1 1026839
15:00+3nnw336793 0.1 1026877
18:00+2n2372100 0.1 1027562
21:00+1ne2477100 0.1 1029263
2 march, tue
tue200:00−1ne228458 0.0 102938
03:00−1ene118529 0.0 102921
06:00−1ssw11830 0.0 102921
09:00+1sw23729 0.0 1030343
12:00+3w456579 0.0 10291034
15:00+4w686689 0.1 10271239
18:00+2wsw5107499 0.1 1026425
21:00+1wsw61277100 0.1 1025521